Location: Melbourne
(37.8170°S, 144.9670°E)
Time: 07:24:27
(UTC+10:00)

ERBS - Visible Passes

Search period start: 21 April 2014 00:00
Search period end: 01 May 2014 00:00
Orbit: 467 x 498 km, 57.0° (Epoch: 19 April)

Date Brightness Start Highest point End Pass type
(mag) Time Alt. Az. Time Alt. Az. Time Alt. Az.
26 Apr 5.2 06:05:59 10° S 06:08:22 15° SSE 06:10:43 10° ESE visible
27 Apr 5.3 05:39:09 10° S 05:41:16 14° SSE 05:43:21 10° ESE visible
28 Apr 5.4 05:12:20 10° S 05:14:07 13° SSE 05:15:54 10° ESE visible
29 Apr 5.4 04:46:04 11° SSE 04:46:56 12° SSE 04:48:19 10° SE visible
29 Apr 3.0 06:21:27 10° SW 06:25:19 67° SE 06:29:08 10° NE visible
30 Apr 5.8 04:20:19 10° SE 04:20:19 10° SE 04:20:32 10° SE visible
30 Apr 3.2 05:54:36 12° SSW 05:58:11 57° SE 06:01:58 10° NE visible
